Flag for Cambodia Weather past 2 weeks in Battambang, Cambodia

Now
79 °F

Passing clouds.


Feels Like: 83 °F
Forecast: 76 / 86 °F
Wind: No wind

Location: Siemreap

Current Time: Jul 31, 2015 at 11:15:54 PM

Latest Report: Jul 31, 2015 at 10:30 PM


Visibility: 6 mi

Pressure: 29.83 "Hg

Humidity: 100%

Dew point: 79 °F

Location of BattambangLocation

Historic Weather in Battambang — Graph

°F

Battambang temperature yesterday

Maximum temperature yesterday: 88 °F (at 3:00 PM)
Minimum temperature yesterday: 73 °F (at 5:00 PM)
Average temperature yesterday: 79 °F

Past Weeks' High & Low Weather Summary

 TemperatureHumidityPressure
High97 °F (Jul 24, 4:30 PM)100% (Jul 19, 7:00 AM)29.92 "Hg (Jul 19, 7:00 AM)
Low73 °F (Jul 30, 5:00 PM)39% (Jul 24, 4:30 PM)29.62 "Hg (Jul 17, 5:30 PM)
Average83 °F78%29.79 "Hg
* Reported Jul 16 10:00 PM — Jul 31 10:00 PM, Battambang, Weather by CustomWeather, © 2015

Note: Actual official high and low records may vary slightly from our data, if they occured in-between our weather recording intervals... More about our weather records

Advertising

Battambang weather history for previous 24 hours

 ConditionsComfort  
Time TempWeatherWind HumidityBarometerVisibility
10:00 PM
Fri, Jul 31
81 °FPassing clouds.No wind94%29.83 "Hg6 mi
9:30 PM81 °FPassing clouds.1 mph94%29.83 "Hg6 mi
9:00 PM81 °FPassing clouds.No wind94%29.80 "Hg6 mi
8:30 PM81 °FPartly cloudy.No wind94%29.80 "Hg6 mi
8:00 PM82 °FPartly cloudy.No wind89%29.80 "Hg6 mi
7:30 PM82 °FPartly cloudy.3 mph84%29.80 "Hg6 mi
7:00 PM82 °FPartly cloudy.5 mph84%29.77 "Hg6 mi
6:30 PM82 °FBroken clouds.3 mph84%29.77 "Hg6 mi
6:00 PM84 °FBroken clouds.3 mph79%29.77 "HgN/A
5:30 PM84 °FBroken clouds.3 mph79%29.77 "HgN/A
5:00 PM84 °FBroken clouds.3 mph74%29.77 "HgN/A
4:30 PM86 °FBroken clouds.1 mph66%29.77 "HgN/A
4:00 PM86 °FBroken clouds.No wind66%29.77 "HgN/A
3:30 PM86 °FBroken clouds.3 mph70%29.77 "HgN/A
2:30 PM86 °FBroken clouds.5 mph66%29.80 "HgN/A
2:00 PM88 °FBroken clouds.2 mph66%29.80 "HgN/A
1:30 PM84 °FBroken clouds.2 mph70%29.83 "HgN/A
1:00 PM84 °FBroken clouds.2 mph70%29.83 "HgN/A
12:30 PM84 °FBroken clouds.1 mph74%29.86 "HgN/A
12:00 PM82 °FBroken clouds.3 mph79%29.86 "HgN/A
11:30 AM81 °FBroken clouds.3 mph89%29.86 "HgN/A
11:00 AM81 °FBroken clouds.3 mph89%29.86 "HgN/A
10:30 AM81 °FBroken clouds.2 mph84%29.86 "HgN/A
10:00 AM81 °FBroken clouds.3 mph89%29.86 "HgN/A
9:30 AM81 °FBroken clouds.3 mph89%29.86 "HgN/A
9:00 AM79 °FBroken clouds.5 mph94%29.86 "HgN/A
8:30 AM79 °FBroken clouds.No wind94%29.86 "Hg6 mi
8:00 AM77 °FBroken clouds.No wind94%29.86 "Hg6 mi
7:30 AM77 °FBroken clouds.No wind100%29.83 "Hg6 mi
7:00 AM75 °FBroken clouds.1 mph100%29.83 "Hg6 mi
1:00 AM75 °FLight rain. Partly cloudy.3 mph100%29.83 "Hg4 mi
12:30 AM75 °FLight rain. Partly cloudy.5 mph100%29.86 "Hg4 mi
12:00 AM75 °FLight rain. Partly cloudy.3 mph100%29.86 "Hg4 mi
11:30 PM
Thu, Jul 30
75 °FLight rain. Partly cloudy.2 mph100%29.89 "Hg4 mi
11:00 PM75 °FLight rain. Partly cloudy.3 mph100%29.89 "Hg4 mi
Weather by CustomWeather, © 2015

See weather overviewHow to use our weather pages